Cheyenne, WY

7:25 AM MDT on October 17, 2017 (GMT -0600)
Cheyenne

Weather History for KCYS - November, 2012

Change the Weather History Date:

Friday, November 9, 2012

  Actual Average Record
Temperature  
Mean Temperature 43 °F 38 °F  
Max Temperature 57 °F 50 °F 70 °F (2016)
Min Temperature 29 °F 27 °F -8 °F (1898)
Degree Days  
Heating Degree Days 22 27  
Month to date heating degree days 169 227  
Since 1 July heating degree days 971 1086  
Cooling Degree Days 0 0  
Month to date cooling degree days 0 0  
Year to date cooling degree days 568 348  
Moisture  
Dew Point 28 °F    
Average Humidity 57    
Maximum Humidity 85    
Minimum Humidity 28    
Precipitation  
Precipitation 0.00 in 0.02 in 0.35 in (1919)
Month to date precipitation 0.00 0.18  
Year to date precipitation 9.56 15.04  
Snow  
Snow 0.00 in 0.30 in 3.20 in (1946)
Month to date snowfall 0.0 2.1  
Since 1 July snowfall 10.2 8.4  
Snow Depth 0.00 in    
Sea Level Pressure  
Sea Level Pressure 29.61 in    
Wind  
Wind Speed 7 mph (SSW)    
Max Wind Speed 15 mph    
Max Gust Speed 20 mph    
Visibility 10 miles    
Events      
T = Trace of Precipitation, MM = Missing Value Source: NWS Daily Summary

Daily Weather History Graph

Daily Weather History Graph

Search for Another Location

Airport or City:

Trip Planner

Search our weather history database for the weather conditions in past years. The results will help you decide how hot, cold, wet, or windy it might be!

Date:

Astronomy

Nov. 09, 2012 Rise Set
Actual Time 6:40 AM MST 4:45 PM MST
Civil Twilight 6:11 AM MST 5:14 PM MST
Nautical Twilight 5:38 AM MST 5:47 PM MST
Astronomical Twilight 5:05 AM MST 6:19 PM MST
Moon 1:39 AM MST (11/9) 2:01 PM MST (11/9)
Length of Visible Light 11h 03m
Length of Day
10h 04m
Waning Crescent, 22% of the Moon is Illuminated
Nov 9
Waning Crescent
Nov 13
New
Nov 20
First Quarter
Nov 28
Full
Dec 6
Last Quarter

Hourly Weather History & Observations

Time (MST) Temp. Windchill Dew Point Humidity Pressure Visibility Wind Dir Wind Speed Gust Speed Precip Events Conditions
12:53 AM 32.0 °F 27.5 °F 27.0 °F 82% 29.77 in 10.0 mi WSW 4.6 mph - N/A   Clear
1:53 AM 30.9 °F 26.2 °F 26.1 °F 82% 29.73 in 10.0 mi WSW 4.6 mph - N/A   Clear
2:53 AM 34.0 °F 31.0 °F 28.0 °F 79% 29.68 in 10.0 mi SW 3.5 mph - N/A   Clear
3:53 AM 32.0 °F 28.7 °F 27.0 °F 82% 29.69 in 10.0 mi West 3.5 mph - N/A   Clear
4:53 AM 32.0 °F 27.5 °F 26.1 °F 79% 29.70 in 10.0 mi WNW 4.6 mph - N/A   Clear
5:53 AM 30.0 °F - 26.1 °F 85% 29.73 in 10.0 mi Calm Calm - N/A   Clear
6:53 AM 30.9 °F 24.3 °F 27.0 °F 85% 29.73 in 10.0 mi SW 6.9 mph - N/A   Clear
7:53 AM 37.0 °F 31.0 °F 30.9 °F 79% 29.73 in 10.0 mi SSW 8.1 mph - N/A   Clear
8:53 AM 42.1 °F 40.2 °F 32.0 °F 67% 29.69 in 10.0 mi South 3.5 mph - N/A   Clear
9:53 AM 46.9 °F - 33.1 °F 59% 29.66 in 10.0 mi SSE 8.1 mph - N/A   Clear
10:53 AM 51.1 °F - 30.9 °F 46% 29.62 in 10.0 mi South 9.2 mph - N/A   Clear
11:53 AM 54.0 °F - 28.9 °F 38% 29.57 in 10.0 mi South 10.4 mph - N/A   Clear
12:53 PM 57.0 °F - 28.9 °F 34% 29.53 in 10.0 mi SSW 11.5 mph - N/A   Clear
1:53 PM 57.0 °F - 25.0 °F 29% 29.53 in 10.0 mi South 11.5 mph - N/A   Clear
2:53 PM 55.0 °F - 28.0 °F 35% 29.52 in 10.0 mi South 12.7 mph - N/A   Clear
3:53 PM 52.0 °F - 28.9 °F 41% 29.54 in 10.0 mi South 12.7 mph - N/A   Clear
4:53 PM 46.9 °F - 28.9 °F 50% 29.56 in 10.0 mi South 10.4 mph - N/A   Clear
5:53 PM 43.0 °F 39.5 °F 28.0 °F 56% 29.59 in 10.0 mi South 5.8 mph - N/A   Clear
6:53 PM 41.0 °F 36.4 °F 28.0 °F 60% 29.60 in 10.0 mi South 6.9 mph - N/A   Clear
7:53 PM 39.0 °F 33.4 °F 28.0 °F 65% 29.57 in 10.0 mi SSW 8.1 mph - 0.00 in   Clear
8:53 PM 35.1 °F 29.3 °F 27.0 °F 72% 29.55 in 10.0 mi SW 6.9 mph - N/A   Clear
9:53 PM 34.0 °F 28.8 °F 27.0 °F 75% 29.50 in 10.0 mi SW 5.8 mph - N/A   Clear
10:53 PM 32.0 °F 25.6 °F 27.0 °F 82% 29.49 in 10.0 mi WSW 6.9 mph - N/A   Clear
11:53 PM 35.1 °F 31.0 °F 28.0 °F 76% 29.42 in 10.0 mi SW 4.6 mph - N/A   Clear